Location: Góry Miechowskie
(50.3599°N, 20.1803°E)
Time: 03:29:47
(UTC+00:00)

Cosmos 2228 - Pass Details

Date: 24 September 2024
Orbit: 574 x 600 km, 82.5° (Epoch: 11 October)

Event Time Altitude Azimuth Distance (km) Brightness Sun altitude
Exits shadow 02:05:27 14° 324° (NW) 1,722 5.3 -22.8°
Drops below altitude 10° 02:06:31 10° 337° (NNW) 1,953 5.7 -22.6°
Sets 02:09:28 0° 358° (N) 2,866 6.8 -22.2°
